owner,sensor,date,latitude,longitude,vertical_datum,direction_of_sea_water_velocity,sea_water_speed,upward_sea_water_velocity,qcFlag 
TABS,ioos:station:wmo:42044:1,2012-01-01T00:00:00Z,26.1914,-97.0507,2.0,8.579605362,27.95279056,-99999.0,'11111222,11111222,99999999' 
TABS,ioos:station:wmo:42044:1,2012-01-01T00:30:00Z,26.1914,-97.0507,2.0,9.363128085,29.38143121,-99999.0,'11111222,11111222,99999999' 
TABS,ioos:station:wmo:42044:1,2012-01-01T01:00:00Z,26.1914,-97.0507,2.0,10.97728245,30.72211093,-99999.0,'11111222,11111222,99999999' 
TABS,ioos:station:wmo:42044:1,2012-01-01T01:30:00Z,26.1914,-97.0507,2.0,14.25106078,31.0763077,-99999.0,'11111222,11111222,99999999' 
TABS,ioos:station:wmo:42044:1,2012-01-01T02:00:00Z,26.1914,-97.0507,2.0,14.3776403,32.58038827,-99999.0,'11111222,11111222,99999999' 
TABS,ioos:station:wmo:42044:1,2012-01-01T02:30:00Z,26.1914,-97.0507,2.0,19.84491477,32.9039724,-99999.0,'11111222,11111222,99999999' 
TABS,ioos:station:wmo:42044:1,2012-01-01T03:00:00Z,26.1914,-97.0507,2.0,17.22054946,32.22452482,-99999.0,'11111222,11111222,99999999' 
TABS,ioos:station:wmo:42044:1,2012-01-01T03:30:00Z,26.1914,-97.0507,2.0,18.05414467,32.8156807,-99999.0,'11111222,11111222,99999999' 
TABS,ioos:station:wmo:42044:1,2012-01-01T04:00:00Z,26.1914,-97.0507,2.0,22.38126904,31.93566188,-99999.0,'11111222,11111222,99999999' 
TABS,ioos:station:wmo:42044:1,2012-01-01T04:30:00Z,26.1914,-97.0507,2.0,21.91247793,33.575637,-99999.0,'11111222,11111222,99999999' 
TABS,ioos:station:wmo:42044:1,2012-01-01T05:00:00Z,26.1914,-97.0507,2.0,20.81280827,34.75805806,-99999.0,'11111222,11111222,99999999' 
TABS,ioos:station:wmo:42044:1,2012-01-01T05:30:00Z,26.1914,-97.0507,2.0,20.81659769,35.53991137,-99999.0,'11111222,11111222,99999999' 
TABS,ioos:station:wmo:42044:1,2012-01-01T06:00:00Z,26.1914,-97.0507,2.0,21.65744778,36.17356632,-99999.0,'11111222,11111222,99999999' 
TABS,ioos:station:wmo:42044:1,2012-01-01T06:30:00Z,26.1914,-97.0507,2.0,19.81583115,35.95921301,-99999.0,'11111222,11111222,99999999' 
TABS,ioos:station:wmo:42044:1,2012-01-01T07:00:00Z,26.1914,-97.0507,2.0,18.98163098,32.15866446,-99999.0,'11111222,11111222,99999999' 
TABS,ioos:station:wmo:42044:1,2012-01-01T07:30:00Z,26.1914,-97.0507,2.0,18.10514216,34.592729,-99999.0,'11111222,11111222,99999999' 
TABS,ioos:station:wmo:42044:1,2012-01-01T08:00:00Z,26.1914,-97.0507,2.0,16.98237499,33.55306394,-99999.0,'11111222,11111222,99999999' 
TABS,ioos:station:wmo:42044:1,2012-01-01T08:30:00Z,26.1914,-97.0507,2.0,19.2750689,32.14168166,-99999.0,'11111222,11111222,99999999' 
TABS,ioos:station:wmo:42044:1,2012-01-01T09:00:00Z,26.1914,-97.0507,2.0,20.06862503,30.39551612,-99999.0,'11111222,11111222,99999999' 
TABS,ioos:station:wmo:42044:1,2012-01-01T09:30:00Z,26.1914,-97.0507,2.0,14.32501158,27.92833149,-99999.0,'11111222,11111222,99999999' 
TABS,ioos:station:wmo:42044:1,2012-01-01T10:00:00Z,26.1914,-97.0507,2.0,14.94343964,28.03820608,-99999.0,'11111222,11111222,99999999' 
TABS,ioos:station:wmo:42044:1,2012-01-01T10:30:00Z,26.1914,-97.0507,2.0,11.85096554,24.93139386,-99999.0,'11111222,11111222,99999999' 
TABS,ioos:station:wmo:42044:1,2012-01-01T11:00:00Z,26.1914,-97.0507,2.0,14.12551913,24.95452063,-99999.0,'11111222,11111222,99999999' 
TABS,ioos:station:wmo:42044:1,2012-01-01T11:30:00Z,26.1914,-97.0507,2.0,22.32701694,26.32342113,-99999.0,'11111222,11111222,99999999' 
TABS,ioos:station:wmo:42044:1,2012-01-01T12:00:00Z,26.1914,-97.0507,2.0,20.35010905,23.75248408,-99999.0,'11111222,11111222,99999999' 
TABS,ioos:station:wmo:42044:1,2012-01-01T12:30:00Z,26.1914,-97.0507,2.0,19.1572274,23.58614,-99999.0,'11111222,11111222,99999999' 
TABS,ioos:station:wmo:42044:1,2012-01-01T13:00:00Z,26.1914,-97.0507,2.0,18.55946898,23.31236582,-99999.0,'11111222,11111222,99999999' 
TABS,ioos:station:wmo:42044:1,2012-01-01T13:30:00Z,26.1914,-97.0507,2.0,21.24147986,22.6057736,-99999.0,'11111222,11111222,99999999' 
TABS,ioos:station:wmo:42044:1,2012-01-01T14:00:00Z,26.1914,-97.0507,2.0,22.38310869,22.13788156,-99999.0,'11111222,11111222,99999999' 
TABS,ioos:station:wmo:42044:1,2012-01-01T14:30:00Z,26.1914,-97.0507,2.0,19.7861781,20.11767879,-99999.0,'11111222,11111222,99999999' 
TABS,ioos:station:wmo:42044:1,2012-01-01T15:00:00Z,26.1914,-97.0507,2.0,16.05567143,18.58491862,-99999.0,'11111222,11111222,99999999' 
TABS,ioos:station:wmo:42044:1,2012-01-01T15:30:00Z,26.1914,-97.0507,2.0,10.59871065,18.3225817,-99999.0,'11111222,11111222,99999999' 
TABS,ioos:station:wmo:42044:1,2012-01-01T16:00:00Z,26.1914,-97.0507,2.0,225.4148629,15.61332764,-99999.0,'11111222,11111222,99999999' 
TABS,ioos:station:wmo:42044:1,2012-01-01T16:30:00Z,26.1914,-97.0507,2.0,290.0207219,5.257718136,-99999.0,'11133222,11111222,99999999' 
TABS,ioos:station:wmo:42044:1,2012-01-01T17:00:00Z,26.1914,-97.0507,2.0,164.5467748,4.316028267,-99999.0,'11133222,11111222,99999999' 
TABS,ioos:station:wmo:42044:1,2012-01-01T17:30:00Z,26.1914,-97.0507,2.0,31.20467935,8.569859976,-99999.0,'11133222,11111222,99999999' 
TABS,ioos:station:wmo:42044:1,2012-01-01T18:00:00Z,26.1914,-97.0507,2.0,23.09565076,11.67578691,-99999.0,'11111222,11111222,99999999' 
TABS,ioos:station:wmo:42044:1,2012-01-01T18:30:00Z,26.1914,-97.0507,2.0,20.93130808,18.95053825,-99999.0,'11111222,11111222,99999999' 
TABS,ioos:station:wmo:42044:1,2012-01-01T19:00:00Z,26.1914,-97.0507,2.0,30.04762374,18.55337436,-99999.0,'11111222,11111222,99999999' 
TABS,ioos:station:wmo:42044:1,2012-01-01T19:30:00Z,26.1914,-97.0507,2.0,33.47839895,23.25873814,-99999.0,'11111222,11111222,99999999' 
TABS,ioos:station:wmo:42044:1,2012-01-01T20:00:00Z,26.1914,-97.0507,2.0,34.82543428,25.05795283,-99999.0,'11111222,11111222,99999999' 
TABS,ioos:station:wmo:42044:1,2012-01-01T20:30:00Z,26.1914,-97.0507,2.0,33.6097956,29.64598118,-99999.0,'11111222,11111222,99999999' 
TABS,ioos:station:wmo:42044:1,2012-01-01T21:00:00Z,26.1914,-97.0507,2.0,43.33361972,34.04037603,-99999.0,'11111222,11111222,99999999' 
TABS,ioos:station:wmo:42044:1,2012-01-01T21:30:00Z,26.1914,-97.0507,2.0,38.23783206,31.58700049,-99999.0,'11111222,11111222,99999999' 
TABS,ioos:station:wmo:42044:1,2012-01-01T22:00:00Z,26.1914,-97.0507,2.0,38.01727807,32.16444776,-99999.0,'11111222,11111222,99999999' 
TABS,ioos:station:wmo:42044:1,2012-01-01T22:30:00Z,26.1914,-97.0507,2.0,34.42630098,34.75760924,-99999.0,'11111222,11111222,99999999' 
TABS,ioos:station:wmo:42044:1,2012-01-01T23:00:00Z,26.1914,-97.0507,2.0,39.32255874,32.95018209,-99999.0,'11111222,11111222,99999999' 
TABS,ioos:station:wmo:42044:1,2012-01-01T23:30:00Z,26.1914,-97.0507,2.0,35.22170508,34.55629899,-99999.0,'11111222,11111222,99999999' 
TABS,ioos:station:wmo:42044:1,2012-01-02T00:00:00Z,26.1914,-97.0507,2.0,36.94042535,35.80802703,-99999.0,'11111222,11111222,99999999' 
TABS,ioos:station:wmo:42044:1,2012-01-02T00:30:00Z,26.1914,-97.0507,2.0,36.67263711,31.93018948,-99999.0,'11111222,11111222,99999999' 
TABS,ioos:station:wmo:42044:1,2012-01-02T01:00:00Z,26.1914,-97.0507,2.0,31.69709162,35.2475602,-99999.0,'11111222,11111222,99999999' 
TABS,ioos:station:wmo:42044:1,2012-01-02T01:30:00Z,26.1914,-97.0507,2.0,31.68424125,37.24043099,-99999.0,'11111222,11111222,99999999' 
TABS,ioos:station:wmo:42044:1,2012-01-02T02:00:00Z,26.1914,-97.0507,2.0,27.12361892,34.41472069,-99999.0,'11111222,11111222,99999999' 
TABS,ioos:station:wmo:42044:1,2012-01-02T02:30:00Z,26.1914,-97.0507,2.0,33.80679184,32.7107383,-99999.0,'11111222,11111222,99999999' 
TABS,ioos:station:wmo:42044:1,2012-01-02T03:00:00Z,26.1914,-97.0507,2.0,33.86836325,30.32560634,-99999.0,'11111222,11111222,99999999' 
TABS,ioos:station:wmo:42044:1,2012-01-02T03:30:00Z,26.1914,-97.0507,2.0,25.39042331,29.66544117,-99999.0,'11111222,11111222,99999999' 
TABS,ioos:station:wmo:42044:1,2012-01-02T04:00:00Z,26.1914,-97.0507,2.0,29.25547141,33.82426644,-99999.0,'11111222,11111222,99999999' 
TABS,ioos:station:wmo:42044:1,2012-01-02T04:30:00Z,26.1914,-97.0507,2.0,29.74117763,36.96979307,-99999.0,'11111222,11111222,99999999' 
TABS,ioos:station:wmo:42044:1,2012-01-02T05:00:00Z,26.1914,-97.0507,2.0,27.36396622,32.72132638,-99999.0,'11111222,11111222,99999999' 
TABS,ioos:station:wmo:42044:1,2012-01-02T05:30:00Z,26.1914,-97.0507,2.0,28.37617581,36.08580053,-99999.0,'11111222,11111222,99999999' 
TABS,ioos:station:wmo:42044:1,2012-01-02T06:00:00Z,26.1914,-97.0507,2.0,27.25961194,33.57926295,-99999.0,'11111222,11111222,99999999' 
TABS,ioos:station:wmo:42044:1,2012-01-02T06:30:00Z,26.1914,-97.0507,2.0,33.81227087,32.54433438,-99999.0,'11111222,11111222,99999999' 
TABS,ioos:station:wmo:42044:1,2012-01-02T07:00:00Z,26.1914,-97.0507,2.0,37.19663619,33.33054155,-99999.0,'11111222,11111222,99999999' 
TABS,ioos:station:wmo:42044:1,2012-01-02T07:30:00Z,26.1914,-97.0507,2.0,31.77157764,32.97044889,-99999.0,'11111222,11111222,99999999' 
TABS,ioos:station:wmo:42044:1,2012-01-02T08:00:00Z,26.1914,-97.0507,2.0,32.44039909,32.67961597,-99999.0,'11111222,11111222,99999999' 
TABS,ioos:station:wmo:42044:1,2012-01-02T08:30:00Z,26.1914,-97.0507,2.0,36.32287161,29.9493656,-99999.0,'11111222,11111222,99999999' 
TABS,ioos:station:wmo:42044:1,2012-01-02T09:00:00Z,26.1914,-97.0507,2.0,38.03797965,27.76776909,-99999.0,'11111222,11111222,99999999' 
TABS,ioos:station:wmo:42044:1,2012-01-02T09:30:00Z,26.1914,-97.0507,2.0,26.89129027,29.07382672,-99999.0,'11111222,11111222,99999999' 
TABS,ioos:station:wmo:42044:1,2012-01-02T10:00:00Z,26.1914,-97.0507,2.0,31.74179396,29.93783726,-99999.0,'11111222,11111222,99999999' 
TABS,ioos:station:wmo:42044:1,2012-01-02T10:30:00Z,26.1914,-97.0507,2.0,22.8743693,30.15106632,-99999.0,'11111222,11111222,99999999' 
TABS,ioos:station:wmo:42044:1,2012-01-02T11:00:00Z,26.1914,-97.0507,2.0,25.59572443,30.92477486,-99999.0,'11111222,11111222,99999999' 
TABS,ioos:station:wmo:42044:1,2012-01-02T11:30:00Z,26.1914,-97.0507,2.0,28.0100755,28.5547229,-99999.0,'11111222,11111222,99999999' 
TABS,ioos:station:wmo:42044:1,2012-01-02T12:00:00Z,26.1914,-97.0507,2.0,17.18884769,30.38718974,-99999.0,'11111222,11111222,99999999' 
TABS,ioos:station:wmo:42044:1,2012-01-02T12:30:00Z,26.1914,-97.0507,2.0,11.54235392,33.38512393,-99999.0,'11111222,11111222,99999999' 
TABS,ioos:station:wmo:42044:1,2012-01-02T13:00:00Z,26.1914,-97.0507,2.0,18.26792624,35.76235031,-99999.0,'11111222,11111222,99999999' 
TABS,ioos:station:wmo:42044:1,2012-01-02T13:30:00Z,26.1914,-97.0507,2.0,20.14824591,35.01257631,-99999.0,'11111222,11111222,99999999' 
TABS,ioos:station:wmo:42044:1,2012-01-02T14:00:00Z,26.1914,-97.0507,2.0,15.85041881,36.3937316,-99999.0,'11111222,11111222,99999999' 
TABS,ioos:station:wmo:42044:1,2012-01-02T14:30:00Z,26.1914,-97.0507,2.0,12.1491703,37.63283805,-99999.0,'11111222,11111222,99999999' 
TABS,ioos:station:wmo:42044:1,2012-01-02T15:00:00Z,26.1914,-97.0507,2.0,17.70759152,39.84791086,-99999.0,'11111222,11111222,99999999' 
TABS,ioos:station:wmo:42044:1,2012-01-02T15:30:00Z,26.1914,-97.0507,2.0,24.12049542,36.48558757,-99999.0,'11111222,11111222,99999999' 
TABS,ioos:station:wmo:42044:1,2012-01-02T16:00:00Z,26.1914,-97.0507,2.0,18.28086275,37.58696849,-99999.0,'11111222,11111222,99999999' 
TABS,ioos:station:wmo:42044:1,2012-01-02T16:30:00Z,26.1914,-97.0507,2.0,17.36862496,40.26593225,-99999.0,'11111222,11111222,99999999' 
TABS,ioos:station:wmo:42044:1,2012-01-02T17:00:00Z,26.1914,-97.0507,2.0,20.1203292,40.00113998,-99999.0,'11111222,11111222,99999999' 
TABS,ioos:station:wmo:42044:1,2012-01-02T17:30:00Z,26.1914,-97.0507,2.0,21.75001484,39.21144348,-99999.0,'11111222,11111222,99999999' 
TABS,ioos:station:wmo:42044:1,2012-01-02T18:00:00Z,26.1914,-97.0507,2.0,20.54750324,38.52058281,-99999.0,'11111222,11111222,99999999' 
TABS,ioos:station:wmo:42044:1,2012-01-02T18:30:00Z,26.1914,-97.0507,2.0,27.8267292,39.61036481,-99999.0,'11111222,11111222,99999999' 
TABS,ioos:station:wmo:42044:1,2012-01-02T19:00:00Z,26.1914,-97.0507,2.0,14.09057917,38.48799553,-99999.0,'11111222,11111222,99999999' 
TABS,ioos:station:wmo:42044:1,2012-01-02T19:30:00Z,26.1914,-97.0507,2.0,16.40355967,39.69572395,-99999.0,'11111222,11111222,99999999' 
TABS,ioos:station:wmo:42044:1,2012-01-02T20:00:00Z,26.1914,-97.0507,2.0,16.70722585,42.15968216,-99999.0,'11111222,11111222,99999999' 
TABS,ioos:station:wmo:42044:1,2012-01-02T20:30:00Z,26.1914,-97.0507,2.0,13.98046834,39.73705575,-99999.0,'11111222,11111222,99999999' 
TABS,ioos:station:wmo:42044:1,2012-01-02T21:00:00Z,26.1914,-97.0507,2.0,20.50953944,41.67134387,-99999.0,'11111222,11111222,99999999' 
TABS,ioos:station:wmo:42044:1,2012-01-02T21:30:00Z,26.1914,-97.0507,2.0,24.40087983,41.68321005,-99999.0,'11111222,11111222,99999999' 
TABS,ioos:station:wmo:42044:1,2012-01-02T22:00:00Z,26.1914,-97.0507,2.0,21.4344765,41.15650252,-99999.0,'11111222,11111222,99999999' 
TABS,ioos:station:wmo:42044:1,2012-01-02T22:30:00Z,26.1914,-97.0507,2.0,16.81290066,38.20297632,-99999.0,'11111222,11111222,99999999' 
TABS,ioos:station:wmo:42044:1,2012-01-02T23:00:00Z,26.1914,-97.0507,2.0,14.55632341,33.14385765,-99999.0,'11111222,11111222,99999999' 
TABS,ioos:station:wmo:42044:1,2012-01-02T23:30:00Z,26.1914,-97.0507,2.0,20.94692265,35.35661183,-99999.0,'11111222,11111222,99999999' 
TABS,ioos:station:wmo:42044:1,2012-01-03T00:00:00Z,26.1914,-97.0507,2.0,16.02744693,37.48710978,-99999.0,'11111222,11111222,99999999' 
TABS,ioos:station:wmo:42044:1,2012-01-03T00:30:00Z,26.1914,-97.0507,2.0,27.2525768,37.27793583,-99999.0,'11111222,11111222,99999999' 
TABS,ioos:station:wmo:42044:1,2012-01-03T01:00:00Z,26.1914,-97.0507,2.0,19.52089787,29.53781475,-99999.0,'11111222,11111222,99999999' 
TABS,ioos:station:wmo:42044:1,2012-01-03T01:30:00Z,26.1914,-97.0507,2.0,25.46900079,31.32410094,-99999.0,'11111222,11111222,99999999' 
TABS,ioos:station:wmo:42044:1,2012-01-03T02:00:00Z,26.1914,-97.0507,2.0,25.83725474,30.97651368,-99999.0,'11111222,11111222,99999999' 
TABS,ioos:station:wmo:42044:1,2012-01-03T02:30:00Z,26.1914,-97.0507,2.0,24.46134417,33.01320039,-99999.0,'11111222,11111222,99999999' 
TABS,ioos:station:wmo:42044:1,2012-01-03T03:00:00Z,26.1914,-97.0507,2.0,27.16083868,29.68317032,-99999.0,'11111222,11111222,99999999' 
TABS,ioos:station:wmo:42044:1,2012-01-03T03:30:00Z,26.1914,-97.0507,2.0,24.32744547,33.32941344,-99999.0,'11111222,11111222,99999999' 
TABS,ioos:station:wmo:42044:1,2012-01-03T04:00:00Z,26.1914,-97.0507,2.0,26.17087343,30.54093974,-99999.0,'11111222,11111222,99999999' 
TABS,ioos:station:wmo:42044:1,2012-01-03T04:30:00Z,26.1914,-97.0507,2.0,19.44914265,31.9851231,-99999.0,'11111222,11111222,99999999' 
TABS,ioos:station:wmo:42044:1,2012-01-03T05:00:00Z,26.1914,-97.0507,2.0,16.54296139,28.0615413,-99999.0,'11111222,11111222,99999999' 
TABS,ioos:station:wmo:42044:1,2012-01-03T05:30:00Z,26.1914,-97.0507,2.0,21.87757906,26.59530974,-99999.0,'11111222,11111222,99999999' 
TABS,ioos:station:wmo:42044:1,2012-01-03T06:00:00Z,26.1914,-97.0507,2.0,21.06021568,25.54638918,-99999.0,'11111222,11111222,99999999' 
TABS,ioos:station:wmo:42044:1,2012-01-03T06:30:00Z,26.1914,-97.0507,2.0,17.94733714,27.48751353,-99999.0,'11111222,11111222,99999999' 
TABS,ioos:station:wmo:42044:1,2012-01-03T07:00:00Z,26.1914,-97.0507,2.0,20.16489326,29.64721403,-99999.0,'11111222,11111222,99999999' 
TABS,ioos:station:wmo:42044:1,2012-01-03T07:30:00Z,26.1914,-97.0507,2.0,22.59832959,28.44384819,-99999.0,'11111222,11111222,99999999' 
TABS,ioos:station:wmo:42044:1,2012-01-03T08:00:00Z,26.1914,-97.0507,2.0,16.75409604,29.10548058,-99999.0,'11111222,11111222,99999999' 
TABS,ioos:station:wmo:42044:1,2012-01-03T08:30:00Z,26.1914,-97.0507,2.0,22.73616217,27.32313306,-99999.0,'11111222,11111222,99999999' 
TABS,ioos:station:wmo:42044:1,2012-01-03T09:00:00Z,26.1914,-97.0507,2.0,23.29118156,26.85876579,-99999.0,'11111222,11111222,99999999' 
TABS,ioos:station:wmo:42044:1,2012-01-03T09:30:00Z,26.1914,-97.0507,2.0,13.66467378,24.29773035,-99999.0,'11111222,11111222,99999999' 
TABS,ioos:station:wmo:42044:1,2012-01-03T10:00:00Z,26.1914,-97.0507,2.0,23.31060172,26.23113608,-99999.0,'11111222,11111222,99999999' 
TABS,ioos:station:wmo:42044:1,2012-01-03T10:30:00Z,26.1914,-97.0507,2.0,27.08763773,23.54230235,-99999.0,'11111222,11111222,99999999' 
TABS,ioos:station:wmo:42044:1,2012-01-03T11:00:00Z,26.1914,-97.0507,2.0,17.71561172,21.65698502,-99999.0,'11111222,11111222,99999999' 
TABS,ioos:station:wmo:42044:1,2012-01-03T11:30:00Z,26.1914,-97.0507,2.0,22.46296726,25.25624873,-99999.0,'11111222,11111222,99999999' 
TABS,ioos:station:wmo:42044:1,2012-01-03T12:00:00Z,26.1914,-97.0507,2.0,21.77144507,24.72348074,-99999.0,'11111222,11111222,99999999' 
TABS,ioos:station:wmo:42044:1,2012-01-03T12:30:00Z,26.1914,-97.0507,2.0,15.90723724,22.58482898,-99999.0,'11111222,11111222,99999999' 
TABS,ioos:station:wmo:42044:1,2012-01-03T13:00:00Z,26.1914,-97.0507,2.0,19.00643348,21.24839994,-99999.0,'11111222,11111222,99999999' 
TABS,ioos:station:wmo:42044:1,2012-01-03T13:30:00Z,26.1914,-97.0507,2.0,23.24855902,19.63425833,-99999.0,'11111222,11111222,99999999' 
TABS,ioos:station:wmo:42044:1,2012-01-03T14:00:00Z,26.1914,-97.0507,2.0,21.85469152,18.02545422,-99999.0,'11111222,11111222,99999999' 
TABS,ioos:station:wmo:42044:1,2012-01-03T14:30:00Z,26.1914,-97.0507,2.0,20.56677161,19.04376538,-99999.0,'11111222,11111222,99999999' 
TABS,ioos:station:wmo:42044:1,2012-01-03T15:00:00Z,26.1914,-97.0507,2.0,29.48801274,19.90901555,-99999.0,'11111222,11111222,99999999' 
TABS,ioos:station:wmo:42044:1,2012-01-03T15:30:00Z,26.1914,-97.0507,2.0,29.00601548,18.27183625,-99999.0,'11111222,11111222,99999999' 
TABS,ioos:station:wmo:42044:1,2012-01-03T16:00:00Z,26.1914,-97.0507,2.0,19.96484552,18.59765845,-99999.0,'11111222,11111222,99999999' 
TABS,ioos:station:wmo:42044:1,2012-01-03T16:30:00Z,26.1914,-97.0507,2.0,22.4556132,19.03315528,-99999.0,'11111222,11111222,99999999' 
TABS,ioos:station:wmo:42044:1,2012-01-03T17:00:00Z,26.1914,-97.0507,2.0,24.51267505,17.98057841,-99999.0,'11111222,11111222,99999999' 
TABS,ioos:station:wmo:42044:1,2012-01-03T17:30:00Z,26.1914,-97.0507,2.0,19.54048382,19.01515185,-99999.0,'11111222,11111222,99999999' 
TABS,ioos:station:wmo:42044:1,2012-01-03T18:00:00Z,26.1914,-97.0507,2.0,23.29688616,16.86502298,-99999.0,'11111222,11111222,99999999' 
TABS,ioos:station:wmo:42044:1,2012-01-03T18:30:00Z,26.1914,-97.0507,2.0,18.34703685,16.45651239,-99999.0,'11111222,11111222,99999999' 
TABS,ioos:station:wmo:42044:1,2012-01-03T19:00:00Z,26.1914,-97.0507,2.0,28.38259735,18.0496759,-99999.0,'11111222,11111222,99999999' 
TABS,ioos:station:wmo:42044:1,2012-01-03T19:30:00Z,26.1914,-97.0507,2.0,28.82288898,16.80144041,-99999.0,'11111222,11111222,99999999' 
TABS,ioos:station:wmo:42044:1,2012-01-03T20:00:00Z,26.1914,-97.0507,2.0,13.82698626,13.93376475,-99999.0,'11111222,11111222,99999999' 
TABS,ioos:station:wmo:42044:1,2012-01-03T20:30:00Z,26.1914,-97.0507,2.0,9.012648196,15.70387532,-99999.0,'11111222,11111222,99999999' 
TABS,ioos:station:wmo:42044:1,2012-01-03T21:00:00Z,26.1914,-97.0507,2.0,5.870675903,12.12358033,-99999.0,'11111222,11111222,99999999' 
TABS,ioos:station:wmo:42044:1,2012-01-03T21:30:00Z,26.1914,-97.0507,2.0,359.4585661,9.520425411,-99999.0,'11133222,11144222,99999999' 
TABS,ioos:station:wmo:42044:1,2012-01-03T22:00:00Z,26.1914,-97.0507,2.0,6.860694873,11.55271829,-99999.0,'11111222,11111222,99999999' 
TABS,ioos:station:wmo:42044:1,2012-01-03T22:30:00Z,26.1914,-97.0507,2.0,3.70778467,12.52621651,-99999.0,'11111222,11111222,99999999' 
TABS,ioos:station:wmo:42044:1,2012-01-03T23:00:00Z,26.1914,-97.0507,2.0,6.541981205,10.35743694,-99999.0,'11111222,11111222,99999999' 
TABS,ioos:station:wmo:42044:1,2012-01-03T23:30:00Z,26.1914,-97.0507,2.0,3.390068333,8.625091304,-99999.0,'11133222,11111222,99999999' 
TABS,ioos:station:wmo:42044:1,2012-01-04T00:00:00Z,26.1914,-97.0507,2.0,7.670097709,7.04301072,-99999.0,'11133222,11111222,99999999' 
TABS,ioos:station:wmo:42044:1,2012-01-04T00:30:00Z,26.1914,-97.0507,2.0,349.4064627,4.079534287,-99999.0,'11133222,11111222,99999999' 
TABS,ioos:station:wmo:42044:1,2012-01-04T01:00:00Z,26.1914,-97.0507,2.0,346.6131345,4.923789191,-99999.0,'11133222,11111222,99999999' 
TABS,ioos:station:wmo:42044:1,2012-01-04T01:30:00Z,26.1914,-97.0507,2.0,352.3816818,4.751946969,-99999.0,'11133222,11111222,99999999' 
TABS,ioos:station:wmo:42044:1,2012-01-04T02:00:00Z,26.1914,-97.0507,2.0,179.4257041,4.990250495,-99999.0,'11133222,11111222,99999999' 
TABS,ioos:station:wmo:42044:1,2012-01-04T02:30:00Z,26.1914,-97.0507,2.0,147.1884995,5.425605957,-99999.0,'11133222,11111222,99999999' 
TABS,ioos:station:wmo:42044:1,2012-01-04T03:00:00Z,26.1914,-97.0507,2.0,153.0341382,3.197655391,-99999.0,'11133222,11111222,99999999' 
TABS,ioos:station:wmo:42044:1,2012-01-04T03:30:00Z,26.1914,-97.0507,2.0,177.0889585,2.953811098,-99999.0,'11133222,11111222,99999999' 
TABS,ioos:station:wmo:42044:1,2012-01-04T04:00:00Z,26.1914,-97.0507,2.0,95.83661488,2.261725005,-99999.0,'11133222,11111222,99999999' 
TABS,ioos:station:wmo:42044:1,2012-01-04T04:30:00Z,26.1914,-97.0507,2.0,98.76025751,3.086000648,-99999.0,'11133222,11111222,99999999' 
TABS,ioos:station:wmo:42044:1,2012-01-04T05:00:00Z,26.1914,-97.0507,2.0,96.74838326,4.340069124,-99999.0,'11133222,11111222,99999999' 
TABS,ioos:station:wmo:42044:1,2012-01-04T05:30:00Z,26.1914,-97.0507,2.0,57.86130832,8.195925817,-99999.0,'11133222,11111222,99999999' 
TABS,ioos:station:wmo:42044:1,2012-01-04T06:00:00Z,26.1914,-97.0507,2.0,38.19613709,8.296222032,-99999.0,'11133222,11111222,99999999' 
TABS,ioos:station:wmo:42044:1,2012-01-04T06:30:00Z,26.1914,-97.0507,2.0,55.44789835,10.13829374,-99999.0,'11111222,11111222,99999999' 
TABS,ioos:station:wmo:42044:1,2012-01-04T07:00:00Z,26.1914,-97.0507,2.0,41.02303023,12.23412441,-99999.0,'11111222,11111222,99999999' 
TABS,ioos:station:wmo:42044:1,2012-01-04T07:30:00Z,26.1914,-97.0507,2.0,36.48489667,11.60426215,-99999.0,'11111222,11111222,99999999' 
TABS,ioos:station:wmo:42044:1,2012-01-04T08:00:00Z,26.1914,-97.0507,2.0,49.29287289,11.14699063,-99999.0,'11111222,11111222,99999999' 
TABS,ioos:station:wmo:42044:1,2012-01-04T08:30:00Z,26.1914,-97.0507,2.0,48.37869779,11.75840976,-99999.0,'11111222,11111222,99999999' 
TABS,ioos:station:wmo:42044:1,2012-01-04T09:00:00Z,26.1914,-97.0507,2.0,40.16881703,12.92942381,-99999.0,'11111222,11111222,99999999' 
TABS,ioos:station:wmo:42044:1,2012-01-04T09:30:00Z,26.1914,-97.0507,2.0,34.10391541,15.74834912,-99999.0,'11111222,11111222,99999999' 
TABS,ioos:station:wmo:42044:1,2012-01-04T10:00:00Z,26.1914,-97.0507,2.0,28.03763421,14.44529681,-99999.0,'11111222,11111222,99999999' 
TABS,ioos:station:wmo:42044:1,2012-01-04T10:30:00Z,26.1914,-97.0507,2.0,34.37864735,13.61887293,-99999.0,'11111222,11111222,99999999' 
TABS,ioos:station:wmo:42044:1,2012-01-04T11:00:00Z,26.1914,-97.0507,2.0,13.57709085,14.82425378,-99999.0,'11111222,11111222,99999999' 
TABS,ioos:station:wmo:42044:1,2012-01-04T11:30:00Z,26.1914,-97.0507,2.0,15.58747595,11.64840332,-99999.0,'11111222,11111222,99999999' 
TABS,ioos:station:wmo:42044:1,2012-01-04T12:00:00Z,26.1914,-97.0507,2.0,14.71173774,12.75826007,-99999.0,'11111222,11111222,99999999' 
TABS,ioos:station:wmo:42044:1,2012-01-04T12:30:00Z,26.1914,-97.0507,2.0,14.11243878,12.79619084,-99999.0,'11111222,11111222,99999999' 
TABS,ioos:station:wmo:42044:1,2012-01-04T13:00:00Z,26.1914,-97.0507,2.0,5.816714844,11.8409628,-99999.0,'11111222,11111222,99999999' 
TABS,ioos:station:wmo:42044:1,2012-01-04T13:30:00Z,26.1914,-97.0507,2.0,357.7290522,10.59832534,-99999.0,'11111222,11111222,99999999' 
TABS,ioos:station:wmo:42044:1,2012-01-04T14:00:00Z,26.1914,-97.0507,2.0,4.523207239,11.6663319,-99999.0,'11111222,11111222,99999999' 
TABS,ioos:station:wmo:42044:1,2012-01-04T14:30:00Z,26.1914,-97.0507,2.0,4.496061608,9.950618071,-99999.0,'11133222,11111222,99999999' 
TABS,ioos:station:wmo:42044:1,2012-01-04T15:00:00Z,26.1914,-97.0507,2.0,356.0513649,10.74551069,-99999.0,'11111222,11111222,99999999' 
TABS,ioos:station:wmo:42044:1,2012-01-04T15:30:00Z,26.1914,-97.0507,2.0,359.1078271,9.631168153,-99999.0,'11133222,11144222,99999999' 
TABS,ioos:station:wmo:42044:1,2012-01-04T16:00:00Z,26.1914,-97.0507,2.0,335.05766,9.319195244,-99999.0,'11133222,11111222,99999999' 